Location: Unspecified
(43.4354°N, 0.0000°E)
Time: 13:55:52
(UTC+00:00)

Vanguard 3 - All Passes

Search period start: 26 June 2019 00:00
Search period end: 06 July 2019 00:00
Orbit: 508 x 3263 km, 33.3° (Epoch: 25 June)

Date Brightness Start Highest point End Pass type
(mag) Time Alt. Az. Time Alt. Az. Time Alt. Az.
26 Jun - 07:05:43 10° S 07:16:19 18° SE 07:25:06 10° ESE daylight
26 Jun - 09:15:23 10° SW 09:30:16 36° SSE 09:40:07 10° E daylight
26 Jun - 11:30:18 10° WSW 11:43:42 47° S 11:51:30 10° ESE daylight
26 Jun - 13:46:35 10° W 13:55:46 36° SSW 14:01:21 10° SE daylight
26 Jun - 16:04:51 10° SW 16:06:00 10° SW 16:07:03 10° SSW daylight
27 Jun - 05:57:35 10° SSE 06:00:57 11° SE 06:04:11 10° SE daylight
27 Jun - 08:00:12 10° SSW 08:14:50 30° SSE 08:25:38 10° E daylight
27 Jun - 10:13:32 10° SW 10:28:50 46° S 10:38:11 10° E daylight
27 Jun - 12:29:43 10° WSW 12:41:48 46° S 12:48:47 10° ESE daylight
27 Jun - 14:46:23 10° W 14:52:59 23° SSW 14:57:30 10° SSE daylight
28 Jun - 06:46:28 10° S 06:59:18 22° SE 07:09:55 10° ESE daylight
28 Jun - 08:57:13 10° SW 09:13:30 41° SSE 09:24:22 10° E daylight
28 Jun - 11:12:38 10° WSW 11:27:16 50° S 11:35:48 10° ESE daylight
28 Jun - 13:29:22 10° W 13:39:30 36° SSW 13:45:37 10° SE daylight
28 Jun - 15:49:01 10° SW 15:49:41 10° SW 15:50:20 10° SW daylight
29 Jun - 05:35:36 10° SSE 05:43:51 14° SE 05:51:30 10° ESE daylight
29 Jun - 07:41:47 10° SSW 07:57:51 34° SSE 08:09:52 10° E daylight
29 Jun - 09:55:39 10° WSW 10:12:10 50° S 10:22:23 10° E daylight
29 Jun - 12:12:13 10° W 12:25:25 47° SSW 12:33:03 10° ESE daylight
29 Jun - 14:29:27 10° W 14:36:40 23° SW 14:41:36 10° SSE daylight
30 Jun - 06:27:42 10° SSW 06:42:09 26° SE 06:54:17 10° E daylight
30 Jun - 08:39:11 10° SW 08:56:35 46° SSE 09:08:28 10° E daylight
30 Jun - 10:54:56 10° WSW 11:10:42 53° S 11:20:01 10° ESE daylight
30 Jun - 13:12:05 10° W 13:23:08 36° SSW 13:29:49 10° SE daylight
01 Jul - 05:15:50 10° S 05:26:37 18° SE 05:36:41 10° ESE daylight
01 Jul - 07:23:37 10° SSW 07:40:43 39° SSE 07:53:54 10° E daylight
01 Jul - 09:37:50 10° WSW 09:55:21 53° S 10:06:30 10° ESE daylight
01 Jul - 11:54:41 10° W 12:08:55 48° SSW 12:17:15 10° SE daylight
01 Jul - 14:12:26 10° W 14:20:14 22° SW 14:25:36 10° S daylight
02 Jul - 06:09:20 10° SSW 06:24:51 30° SE 06:38:21 10° E daylight
02 Jul - 08:21:18 10° SW 08:39:32 49° SSE 08:52:28 10° E daylight
02 Jul - 10:37:16 10° WSW 10:54:00 55° S 11:04:09 10° ESE daylight
02 Jul - 12:54:42 10° W 13:06:38 36° SSW 13:13:56 10° SE daylight
03 Jul - 04:56:54 10° S 05:09:15 21° SE 05:21:06 10° E daylight
03 Jul - 07:05:41 10° SW 07:23:28 43° SSE 07:37:46 10° E daylight
03 Jul - 09:20:06 10° WSW 09:38:26 56° S 09:50:31 10° ESE daylight
03 Jul - 11:37:06 10° W 11:52:17 48° SSW 12:01:22 10° SE daylight
03 Jul - 13:55:21 10° W 14:03:42 22° SW 14:09:30 10° S daylight
04 Jul - 03:49:09 10° SE 03:54:06 11° SE 03:59:05 10° ESE visible
04 Jul - 05:51:17 10° SSW 06:07:28 34° SSE 06:22:08 10° E daylight
04 Jul - 08:03:34 10° SW 08:22:23 53° SSE 08:36:19 10° E daylight
04 Jul - 10:19:37 10° WSW 10:37:11 56° S 10:48:11 10° ESE daylight
04 Jul - 12:37:16 10° W 12:50:00 36° SSW 12:57:57 10° SSE daylight
05 Jul - 04:38:32 10° S 04:51:48 24° SE 05:05:04 10° E daylight
05 Jul - 06:47:58 10° SW 07:06:07 46° SSE 07:21:28 10° E daylight
05 Jul - 09:02:28 10° WSW 09:21:24 58° S 09:34:25 10° ESE daylight
05 Jul - 11:19:30 10° W 11:35:32 48° SSW 11:45:24 10° SE daylight
05 Jul - 13:38:13 10° W 13:47:01 21° SW 13:53:16 10° S daylight
